OBJECT F, 61232

Orbit data source: Space-Track

You're viewing an Uncataloged Satellite

Recently launched and/or uncataloged satellites may have evolving metadata. Metadata may include but not limited to: Owner, Maufacturer, Bus, Motor, and Mission.

OBJECT F, 61232 is a satellite owned by Guoxing (CN) in SSO that was launched on Tue, 24 Sep 2024 UTC via a JIELONG-3 launch vehicle from the Yellow Sea Launch Area, China (YSLA). Unknown objects in Earth's orbit typically refer to objects detected orbiting the Earth but have not yet been identified or cataloged. These objects could be anything from previously untracked satellites, spent rocket stages, debris from satellite collisions, or even natural meteoroids temporarily captured by Earth's gravity.

Loading next visibility...
Identifier
61232, 2024-173F
Orbit
SSO
Last TLE update
9 hours ago
Origin
Flag of CNGUOX (CN / PRC)
Manufacturer
GUOX/HISTAR
Mission
Operational Commercial Technology
Bus & Motor
XSD, Unknown motor
Mass
~25 kg wet, ~25 kg dry
Launch date (UTC)
2024-09-24 (9 months ago)
Launch vehicle
JIELONG-3
Launch site
Yellow Sea Launch Area, China (YSLA)
Object type
Unknown
Shape & HBR
Box + 3 Pan, 0.3 m
Radar Cross Section
0.135 m², Medium (>0.1 m² and < 1m²)

Expand to show TLE details & history

TLE from 9 hours ago
0 OBJECT F
1 61232U 24173F   25181.86203265  .00024557  00000-0  49362-3 0  9990
2 61232  97.3756 261.7754 0008280   7.2953 352.8415 15.46594970 42890
Epoch: 2025-06-30T20:41Z
TLE epoch observation values (Epoch: 2025-06-30T20:41:19.62Z)
Latitude
-0.00011°
Longitude
32.27791°
Altitude
424.231 km
Speed
7.66 km/s
True Right ascension
17h 27m 06s
True Declination
0° 00' 00"
Sunlit
Object was in full shadow at epoch
Visualization orbit readout
Latitude
-39.67733°
Longitude
38.79572°
Altitude
437.956 km
Speed
7.65 km/s
Apparent Right ascension
21h 32m 03s
Apparent Declination
-85° 28' 20"
Sunlit
Object is in full shadow
Visualization observer readout
Local Sidereal Time
17:27:42
Azimuth
174.995° S
Elevation
-37.618°
Doppler factor
1
Orbital elements
Apogee altitude
429.257 km
Perigee altitude
417.993 km
Semi-major axis
6,801.762 km
Eccentricity
0.00083
Inclination
97.3756°
RAAN
261.7754°
Arg. of periapsis
7.2953°
True anomaly
Unknown
Mean anomaly
352.8415°
Eccentric anomaly
Unknown
Mean motion
3.86911 °/min
Orbital period
93.04 mins
BSTAR
0.00049362
Loading maneuver chart data...
Loading SW <> Apogee altitude chart data...
Loading historical data...
Loading historical data...
Loading historical data...
Loading historical data...
Loading historical data...
Loading historical data...
Loading historical data...

OBJECT F Visibility forecast

Observer location: undefined°, undefined°

Span
Click to sort rows by Start time (UTC) header in descending order
Start Az.
Max El. time (UTC)
Max El. Az.
Max El.
End time (UTC)
End Az.
4 mins2025-07-01 06:08:01.172Z216.478° SW2025-07-01 06:10:01.172Z255.072° W17.995°2025-07-01 06:12:01.172Z302.089° NW
5 mins2025-07-02 05:26:01.172Z169.997° S2025-07-02 05:28:01.172Z196.26° SSW44.36°2025-07-02 05:31:01.172Z346.533° N
|